#timestamp,LO_Frequency,Hit,StdDev 
1642816815.3,286047000.4,N
1642816835.1,286046996.6,N
1642816855.9,286046999.3,N
1642816875.7,286046999.2,N
1642816895.6,286046999.3,N
1642816915.4,286046998.4,N
1642816935.2,286046998.5,N
1642816955.1,286047001.2,N
1642816956.0,286047001.2,N
1642816975.8,286046998.3,N
1642816995.6,286046998.6,N
1642817015.5,286047000.8,N
1642817035.3,286046998.5,N
1642817055.2,286046996.5,N
1642817075.9,286046998.2,N
1642817095.7,286047000.3,N
1642817115.6,286047002.1,N
1642817135.7,286047004.0,N
1642817155.5,286047001.6,N
1642817175.3,286047000.0,N
1642817195.2,286046999.3,N
1642817215.0,286046996.8,N
1642817215.9,286046996.8,N
1642817235.8,286046996.6,N
1642817255.6,286046998.6,N
1642817275.4,286047000.3,N
1642817295.3,286047002.5,N
1642817315.1,286047001.9,N
1642817335.9,286047002.3,N
1642817355.7,286047002.3,N
1642817375.5,286047002.2,N
1642817395.4,286047000.6,N
1642817415.2,286046998.5,N
1642817435.1,286047001.9,N
1642817436.0,286047001.9,N
1642817455.8,286046999.8,N
1642817475.6,286046999.8,N
1642817495.5,286046999.9,N
1642817515.3,286047000.5,N
1642817535.1,286047000.0,N
1642817555.9,286047001.4,N
1642817575.7,286047002.6,N
1642817595.6,286047004.0,N
1642817615.4,286047001.8,N
1642817635.2,286047001.6,N
1642817655.1,286047002.5,N
1642817656.0,286047002.5,N
1642817675.8,286047002.4,N
1642817695.7,286047002.0,N
1642817715.5,286047002.5,N
1642817735.3,286047004.4,N
1642817755.2,286047001.5,N
1642817775.0,286047001.6,N
1642817775.9,286047001.6,N
1642817795.7,286047002.4,N
1642817815.6,286046999.8,N
1642817835.4,286047000.7,N
1642817855.3,286047001.1,N
1642817875.1,286047000.5,N
1642817876.0,286047000.5,N
1642817895.8,286047000.2,N
1642817915.7,286046999.9,N
1642817935.5,286047000.1,N
1642817955.3,286047000.8,N
1642817975.2,286047000.2,N
1642817995.0,286046999.8,N
1642817995.9,286046999.8,N
1642818015.8,286047002.4,N
1642818035.6,286047002.4,N
1642818055.4,286047000.6,N
1642818075.3,286047000.7,N
1642818095.1,286047000.7,N
1642818115.8,286046998.1,N
1642818135.7,286046998.7,N
1642818155.5,286046999.4,N
1642818175.4,286046998.6,N
1642818195.2,286047001.1,N
1642818215.0,286047001.0,N
1642818215.9,286047001.0,N
1642818235.8,286046998.2,N
1642818255.6,286046998.4,N
1642818275.4,286046997.7,N
1642818295.3,286046996.9,N
1642818315.1,286046998.0,N
1642818335.9,286046999.3,N
1642818355.7,286046996.7,N
1642818375.5,286046998.1,N
1642818395.4,286047000.8,N
1642818415.2,286047000.2,N
1642818435.0,286047000.3,N
1642818436.0,286047000.3,N
1642818455.8,286046998.9,N
1642818475.6,286046998.4,N
1642818495.5,286046998.5,N
1642818515.3,286046997.8,N
1642818535.1,286046995.2,Y
1642818555.9,286046997.3,P
1642818575.7,286046996.9,N
1642818595.6,286046995.1,P
1642818615.4,286046996.9,N
1642818635.2,286046996.5,N
1642818655.1,286046997.6,N
1642818656.0,286046997.6,N
1642818675.8,286046997.5,N
1642818695.7,286046995.3,Y
1642818715.5,286046999.4,P
1642818735.3,286047000.8,N
1642818755.2,286046998.2,N
1642818775.0,286046998.1,N
1642818775.9,286046998.1,N
1642818795.7,286046999.7,N
1642818815.6,286047002.7,N
1642818835.4,286047000.5,N
1642818855.3,286047002.8,N
1642818875.1,286047002.8,N
1642818876.0,286047002.8,N
1642818895.8,286046999.7,N
1642818915.7,286047000.2,N
1642818935.5,286047002.6,N
1642818955.3,286046999.9,N
1642818975.2,286047000.7,N
1642818995.0,286047001.1,N
1642818995.9,286047001.1,N
1642819015.8,286046999.0,N
1642819035.6,286046998.1,N
1642819055.4,286046996.6,N
1642819075.3,286046996.6,N
1642819095.1,286046999.6,N
1642819115.8,286046996.5,N
1642819135.7,286046996.9,N
1642819155.5,286046997.6,N
1642819175.4,286046996.8,N
1642819195.2,286046998.4,N
1642819215.0,286046998.3,N
1642819215.9,286046998.3,N
1642819235.8,286047001.0,N
1642819255.6,286046998.5,N
1642819275.4,286046998.3,N
1642819295.3,286046996.5,N
1642819315.1,286046998.8,N
1642819335.9,286046999.4,N
1642819355.7,286047000.7,N
1642819375.5,286047000.0,N
1642819395.4,286046998.8,N
1642819415.2,286046996.5,N
1642819435.1,286046996.5,N
1642819436.0,286046996.5,N
1642819455.8,286046997.1,N
1642819475.6,286046999.3,N
1642819495.5,286046997.0,N
1642819515.3,286046999.0,N
1642819535.1,286046998.4,N
1642819555.9,286046998.5,N
1642819575.7,286046999.4,N
1642819595.6,286046997.8,N
1642819615.4,286046996.7,N
1642819635.2,286046997.3,N
1642819655.1,286046997.0,N
1642819656.0,286046997.0,N
1642819675.8,286046997.6,N
1642819695.6,286046997.4,N
1642819715.5,286046997.0,N
1642819735.3,286046998.9,N
1642819755.2,286046996.8,N
1642819775.9,286046997.2,N
1642819795.7,286046997.0,N
1642819815.6,286046996.5,Y
1642819835.4,286047001.0,P
1642819855.2,286047000.2,N
1642819875.1,286047000.5,N
1642819876.0,286047000.5,N
1642819895.8,286047000.7,N
1642819915.7,286046999.2,N
1642819935.5,286046998.2,N
1642819955.3,286046998.7,N
1642819975.2,286047000.5,N
1642819995.0,286047000.6,N
1642819995.9,286047011.9,Y
1642820015.8,286047000.5,P
1642820035.6,286047002.1,P
1642820055.4,286047000.7,N
1642820075.3,286047000.9,N
1642820095.1,286046998.4,N
1642820115.8,286046998.1,N
1642820135.7,286046998.1,N
1642820155.5,286047000.5,N
1642820175.4,286047002.4,N
1642820195.2,286047000.3,N
1642820215.0,286047000.0,N
1642820216.0,286047000.0,N
1642820235.8,286047000.1,N
1642820255.6,286047001.0,N
1642820275.5,286046998.2,N
1642820295.3,286046999.1,N
1642820315.9,286047001.2,N
1642820335.7,286046998.1,N
1642820355.6,286046998.8,N
1642820375.4,286046996.5,N
1642820395.2,286046995.2,Y
